Regional Weather Roundup
Issued by NWS

Home | Current Version | Previous Version | Graphics & Text | Print | Product List | Glossary On
Versions: 1 2 3 4 5 6 7 8 9 10 11 12 13 14 15 16 17 18 19 20 21 22 23 24 25 26 27 28 29 30 31 32 33 34 35 36 37 38 39 40 41 42 43 44 45 46
000
ASUS43 KDMX 250607
RWRIA

WEATHER ROUNDUP FOR IOWA
NATIONAL WEATHER SERVICE DES MOINES IA
100 AM CDT FRI JUL 25 2014

NOTE: "FAIR" INDICATES FEW OR NO CLOUDS BELOW 12,000 FEET WITH NO
SIGNIFICANT WEATHER AND/OR OBSTRUCTIONS TO VISIBILITY.

* - THESE STATIONS ARE NOT NWS STATIONS...THUS NOT UNDER NWS
QUALITY CONTROL.  THEY ALSO DO NOT REPORT WEATHER SUCH
AS PRECIPITATION OR FOG.

IAZ001>003-012>014-020>022-031>034-043>046-250700-
   NORTHWEST IOWA

CITY           SKY/WX    TMP DP  RH WIND       PRES   REMARKS
CARROLL *      CLOUDY    68  61  77 SE8       29.88F
CHEROKEE *     CLOUDY    69  62  79 S18       29.82F
DENISON *      CLEAR     70  61  73 S9G20     29.85S
LE MARS *      CLEAR     72  63  73 S17G26    29.78F
ORANGE CITY *  CLEAR     70  59  68 SE7       29.81F
SHELDON *      MOCLDY    66  63  88 SE10      29.81F
SIOUX CITY     CLOUDY    74  62  66 S24G36    29.75F
6HR MIN TEMP:  74; 6HR MAX TEMP:  78;

SPENCER        TSTM      63  61  93 E15       29.87F FOG
6HR MIN TEMP:  63; 6HR MAX TEMP:  68; 6HR PCP:  0.23;

STORM LAKE *   LGT RAIN  66  64  94 SE20      29.87F
$$

IAZ055>058-069>071-079>083-090>094-250700-
   SOUTHWEST IOWA

CITY           SKY/WX    TMP DP  RH WIND       PRES   REMARKS
ATLANTIC *     CLOUDY    70  61  73 S14G20    29.88F
AUDUBON *      CLEAR     72  64  78 S8        29.90F
CLARINDA *     CLEAR     70  61  73 S10G16    29.91F
COUNCIL BLFS *   N/A     70  63  78 S10       29.88R
CRESTON *      CLEAR     68  59  73 S15       29.92S
HARLAN  *      CLEAR     72  61  68 S15       29.90F
LAMONI         PTCLDY    67  59  75 S9        29.94S
6HR MIN TEMP:  67; 6HR MAX TEMP:  76;

RED OAK *      PTCLDY    72  61  68 S10       29.89S
SHENANDOAH *   CLEAR     70  63  78 SE10      29.89F
$$

IAZ047>049-059>061-072>074-084-250700-
   CENTRAL IOWA

CITY           SKY/WX    TMP DP  RH WIND       PRES   REMARKS
AMES           CLEAR     63  60  90 SE7       29.94F
6HR MIN TEMP:  62; 6HR MAX TEMP:  69; 6HR PCP:  0.05;

ANKENY *       CLEAR     64  61  88 SE5       29.94F
CHARITON *     CLEAR     66  59  77 SE7       29.95S
DES MOINES     PTCLDY    70  59  68 SE9       29.94F
6HR MIN TEMP:  69; 6HR MAX TEMP:  74; 6HR PCP: TRACE;

GRINNELL*      CLEAR     64  57  77 SE9       30.00R
KNOXVILLE *    CLEAR     64  59  82 SE7       29.95F
MARSHALLTOWN   CLEAR     65  60  84 SE12      29.98R
6HR MIN TEMP:  62; 6HR MAX TEMP:  69; 6HR PCP:  0.04;

PELLA *        CLEAR     64  58  82 SE5       29.99R
PERRY *          N/A     64  61  88 E5        29.91F
$$

IAZ004>006-015-016-023>025-035-036-250700-
   NORTH CENTRAL IOWA

CITY           SKY/WX    TMP DP  RH WIND       PRES   REMARKS
ALGONA *       CLOUDY    64  63  94 SE12      29.89F
CLARION *      MOCLDY    64  63  94 SE10G16   29.93F
ESTHERVILLE    MOCLDY    63  61  93 E10       29.85F
6HR MIN TEMP:  59; 6HR MAX TEMP:  65;

FORT DODGE *   CLOUDY    63  61  94 E12       29.90F
MASON CITY     MOCLDY    64  62  93 SE10      29.97F
6HR MIN TEMP:  61; 6HR MAX TEMP:  68;

FOREST CITY *  MOCLDY    64  63  94 SE13      29.92F
IOWA FALLS *     N/A     63  61  94 SE7       29.97F
$$

IAZ007>011-017>019-026>030-037>042-050>054-066-250700-
   NORTHEAST IOWA

CITY           SKY/WX    TMP DP  RH WIND       PRES   REMARKS
CEDAR RAPIDS   CLEAR     64  58  80 SE6       30.02R
6HR MIN TEMP:  63; 6HR MAX TEMP:  71; 6HR PCP: TRACE;

CHARLES CITY * CLEAR     64  59  82 SE8       30.00S
CLINTON *      CLEAR     61  55  82 S3        30.08R
DECORAH *      PTCLDY    63  59  88 S6        30.00F
DUBUQUE        CLEAR     60  57  89 S6        30.06R
6HR MIN TEMP:  59; 6HR MAX TEMP:  71;

MONTICELLO *   CLEAR     61  59  94 CALM      30.04R
OELWEIN *      PTCLDY    63  59  88 SE7       30.03S
WATERLOO       PTCLDY    66  59  78 SE9       29.99S
6HR MIN TEMP:  66; 6HR MAX TEMP:  73; 6HR PCP: TRACE;

$$

IAZ064-065-067-068-078-250700-
   EAST CENTRAL IOWA

CITY           SKY/WX    TMP DP  RH WIND       PRES   REMARKS
DAVENPORT      CLEAR     62  54  74 S5        30.05R
6HR MIN TEMP:  62; 6HR MAX TEMP:  73;

IOWA CITY      CLEAR     64  59  83 SE3       30.03R
6HR MIN TEMP:  62; 6HR MAX TEMP:  74; 6HR PCP: TRACE;

MT. PLEASANT * CLEAR     62  56  81 SE5       30.02S
MUSCATINE *    CLEAR     61  57  88 CALM      30.03S
QUAD CITIES    CLEAR     62  56  80 S6        30.04R
6HR MIN TEMP:  62; 6HR MAX TEMP:  73;

$$

IAZ062-063-075>077-085>089-095>099-250700-
   SOUTHEAST IOWA

CITY           SKY/WX    TMP DP  RH WIND       PRES   REMARKS
BURLINGTON     CLEAR     66  57  72 S6        30.03R
6HR MIN TEMP:  65; 6HR MAX TEMP:  74;

FAIRFIELD *    CLEAR     63  57  82 SE8       30.01S
FORT MADISON * CLEAR     66  61  82 S3        30.04R
KEOKUK *       CLEAR     66  57  72 S5        30.02R
OSKALOOSA *      N/A     62  59  88 SE9       30.00R
CENTERVILLE *  CLEAR     63  59  88 SE6       30.00S
OTTUMWA        CLEAR     62  58  86 SE8       29.99R
6HR MIN TEMP:  61; 6HR MAX TEMP:  73; 6HR PCP: TRACE;

WASHINGTON *   CLEAR     63  59  88 SE7       30.02R
$$

ABBREVIATIONS USED IN REMARKS
   TC - TEMPERATURES IN CELSIUS
  WCI - WIND CHILL INDEX
   HX - HEAT INDEX
  VSB - VISIBILITY
$$




USA.gov is the U.S. government's official web portal to all federal, state and local government web resources and services.